Powrót do katalogu

STARLINK-32609

AktywnyŁącznośćVLEO
NORAD 61929·PAYLOAD·🇺🇸 United States

Wystrzelony Nov 11, 2024 z Cape Canaveral Space Force Station

Loading…

Następne Przeloty (najbliższe 24 godziny)

TLE

ŚwieżeSource: CelesTrak SupGP

Epoka: Sep 14, 2026, 21:15 UTC

1 61929C 24207T   26257.88590278 -.00006891  00000+0 -24959-3 0  2575
2 61929  43.0003 293.1623 0001559 268.3490 259.5619 15.27582731    16

Śledź STARLINK-32609 w czasie rzeczywistym z AllMySat

Download on the App Store